Location: Cosy Dell
(34.2789°N, 117.4537°W)
Time: 21:08:39
(UTC+00:00)

Cosmos 2074 Rocket - Pass Details

Date: 14 July 2020
Orbit: 967 x 986 km, 82.9° (Epoch: 13 August)

Event Time Altitude Azimuth Distance (km) Brightness Sun altitude
Exits shadow 04:19:31 17° 151° (SSE) 2,238 5.3 -14.1°
Maximum altitude 04:23:50 41° 90° (E) 1,385 4.5 -14.8°
Drops below altitude 10° 04:29:33 10° 22° (NNE) 2,714 6.6 -15.7°
Sets 04:32:12 0° 16° (NNE) 3,664 7.4 -16.1°
